Location: Kielce
(50.8833°N, 20.6167°E)
Time: 21:07:58
(UTC+02:00)

SR - Pass Details

Date: 22 April 2021
Orbit: 573 x 882 km, 66.7° (Epoch: 09 May)

Event Time Altitude Azimuth Distance (km) Brightness Sun altitude
Rises 13:49:06 0° 319° (NW) 3,492 ? 48.7°
Reaches altitude 10° 13:52:04 10° 331° (NNW) 2,546 ? 48.5°
Maximum altitude 13:57:00 27° 28° (NNE) 1,625 ? 48.1°
Drops below altitude 10° 14:01:48 10° 84° (E) 2,455 ? 47.7°
Sets 14:04:35 0° 97° (E) 3,343 ? 47.5°
